Theta_e
359 357 355 348 328 318 315 318 326 324 327 333 331 326 321 325 319 312 340 343 344 346 352 357 366 365 365 364 364 361 361 363 363 363 362 362 363 362 362 362 362 364 363 362 362 361 363 362 362
356 355 355 345 315 307 314 323 321 326 332 334 330 328 323 320 331 335 336 346 348 349 351 356 366 367 365 364 364 363 363 363 363 363 363 362 362 361 362 362 361 362 362 362 362 363 362 361 361
359 359 344 332 316 309 314 324 326 331 335 334 332 334 330 323 332 334 342 345 347 348 350 357 366 367 365 363 364 364 364 363 362 363 363 362 362 361 362 361 361 361 361 363 363 363 362 362 361
358 353 347 320 315 320 321 326 328 331 333 336 334 328 334 334 334 338 343 345 346 349 354 362 365 365 366 365 365 363 363 363 363 362 362 359 362 362 362 361 361 361 361 362 362 361 361 360 359
357 347 326 314 317 319 327 329 332 330 331 332 334 328 326 335 340 341 342 345 345 349 354 359 366 366 366 365 364 364 363 362 362 361 361 360 362 361 361 360 361 360 361 360 361 360 359 359 359
344 340 314 311 318 326 329 329 333 332 333 335 333 331 332 338 338 341 345 346 352 352 354 357 363 366 366 364 365 364 362 362 364 362 361 361 358 361 361 361 361 360 360 361 360 359 358 359 357
340 327 316 317 319 322 327 332 329 329 327 331 337 329 335 336 338 342 346 349 352 352 352 355 356 359 364 366 364 363 363 362 364 362 361 363 358 360 361 360 360 360 360 360 359 359 358 357 355
330 324 318 319 319 320 329 330 335 329 325 339 339 328 329 338 343 346 348 346 344 350 352 352 356 357 356 358 362 363 363 362 362 361 360 363 360 355 356 358 359 359 359 358 359 358 359 357 356
333 317 314 318 322 325 329 326 331 338 334 336 338 336 341 343 346 346 345 342 343 348 345 349 354 355 354 354 358 364 363 362 363 361 362 362 350 349 352 353 356 356 358 358 358 358 359 358 358
325 318 320 326 327 327 329 329 330 330 332 332 334 341 345 345 344 341 341 340 337 339 347 346 350 353 351 355 353 352 354 353 354 353 355 351 349 345 349 352 356 358 359 359 359 357 356 355 350
326 320 326 328 331 332 330 330 333 329 328 332 332 336 341 342 341 341 341 342 339 337 342 346 346 347 351 350 347 348 354 351 354 354 353 351 353 350 346 344 346 347 351 349 351 355 352 346 345
323 329 329 331 332 328 325 333 329 330 332 337 337 339 340 339 341 341 341 341 343 340 343 346 348 349 349 349 349 347 350 352 352 352 351 350 347 346 345 345 345 344 346 343 344 347 347 345 343
323 327 330 332 330 328 330 327 328 330 336 338 338 339 338 339 340 341 343 343 338 341 343 345 347 347 348 346 346 348 350 350 349 352 353 349 348 344 345 344 341 341 345 343 346 345 344 343 342
328 329 324 330 330 329 327 328 330 332 336 336 336 334 336 339 339 340 339 337 333 336 342 352 351 350 350 350 347 351 351 350 347 351 351 350 349 348 347 347 345 343 344 341 346 344 344 344 344
326 322 320 324 327 324 331 325 326 332 335 333 333 333 335 335 338 335 335 333 332 334 347 349 351 351 348 348 349 349 350 353 351 350 351 350 349 347 347 347 347 347 349 345 343 340 343 346 346
321 321 313 324 328 326 325 316 328 332 332 330 332 333 334 335 335 336 336 335 335 334 342 349 353 350 350 350 352 352 351 351 352 351 348 350 350 351 351 349 349 351 349 345 343 342 338 338 340
317 311 313 318 326 324 322 312 324 332 331 329 331 331 333 335 336 337 341 341 341 342 341 342 349 349 349 353 355 352 352 351 350 345 345 347 350 352 351 348 349 351 350 349 349 344 342 336 337
310 311 315 315 319 323 323 323 328 330 330 330 331 331 332 332 336 337 343 343 342 342 344 345 350 351 352 343 340 347 351 354 341 342 344 347 348 348 345 347 346 351 349 348 348 346 343 339 341
316 314 313 317 322 322 320 315 320 331 327 329 330 331 331 332 337 339 341 344 344 345 346 345 351 350 343 339 337 344 347 349 352 352 349 348 349 348 346 348 349 346 345 347 347 346 345 344 344
317 313 313 319 323 319 318 313 318 327 326 329 329 330 332 333 336 339 339 343 342 345 346 347 347 352 350 348 351 351 350 352 351 352 354 349 352 351 352 350 352 352 349 349 350 349 342 342 344
315 313 313 315 318 317 318 314 315 320 323 328 332 332 333 333 334 336 339 340 339 335 339 343 343 349 355 354 354 354 352 349 349 351 351 352 356 356 355 353 352 351 352 350 348 349 347 337 341
307 316 316 317 310 306 313 304 313 319 324 328 329 330 331 334 336 337 339 339 338 339 345 342 342 342 355 355 353 347 346 343 347 350 350 354 357 356 357 354 354 353 352 349 348 350 347 344 341
311 317 316 316 308 303 306 305 311 318 314 320 321 329 332 334 336 338 340 340 340 340 340 339 341 343 352 352 352 349 347 344 346 347 345 346 354 352 352 351 353 350 346 347 349 348 346 344 342
317 313 311 309 305 297 304 305 306 313 318 321 321 324 328 331 337 338 340 336 334 338 337 341 342 344 351 349 346 343 340 342 342 338 341 347 348 345 345 346 344 343 342 342 343 342 346 344 343
309 304 296 296 297 296 306 306 308 319 323 322 322 326 330 326 334 336 337 338 338 338 342 346 352 351 348 343 344 340 335 345 344 344 342 343 345 337 337 336 336 335 335 336 333 333 341 340 338
305 304 297 292 294 298 308 302 309 322 324 325 327 326 331 328 336 335 336 335 344 350 353 353 351 349 347 347 347 346 345 346 343 342 341 334 335 332 334 333 333 334 334 333 332 331 335 333 332
303 299 304 297 300 295 302 308 314 320 322 324 325 327 328 334 337 335 337 339 346 350 351 350 350 347 346 348 346 345 343 343 336 334 334 332 331 332 331 332 332 329 328 326 325 326 328 329 327
305 306 297 297 292 291 297 303 305 314 317 320 320 327 328 337 337 338 340 347 349 351 350 349 349 348 348 348 346 343 341 338 334 333 331 330 330 330 330 329 328 327 325 326 325 324 326 326 325
301 299 300 297 295 291 291 298 316 315 317 317 318 333 336 338 339 342 345 345 347 348 347 346 347 346 344 344 344 340 335 334 331 329 330 329 329 328 325 326 324 323 320 321 320 322 323 321 325
305 302 300 293 293 295 295 299 322 318 319 320 324 334 338 342 342 343 343 345 344 344 344 343 343 342 341 339 335 333 332 329 328 327 327 327 326 326 324 324 320 315 313 315 316 319 321 321 320
Wind_Speed
13 10 3 4 2 5 3 4 7 18 15 13 19 12 19 12 7 3 8 12 12 10 7 5 9 11 12 13 12 12 12 11 10 10 9 9 10 9 10 10 8 11 11 10 9 9 10 10 9
9 12 3 3 4 6 2 12 10 18 22 20 17 17 13 4 9 12 11 7 11 9 6 6 9 11 14 13 13 12 12 10 10 10 10 10 7 9 8 9 7 9 10 9 11 10 10 9 8
6 9 0 2 3 7 6 9 7 14 20 18 14 12 5 4 10 4 12 10 7 6 6 8 11 12 14 13 13 12 11 10 8 9 9 9 9 8 10 8 6 9 8 8 10 10 10 9 7
6 2 4 2 12 7 7 5 7 24 17 13 13 9 5 10 4 9 15 11 9 8 10 11 12 13 13 14 13 12 10 10 8 7 8 8 9 9 10 10 9 8 7 9 10 9 9 8 6
6 3 3 10 11 6 3 10 20 21 19 19 12 7 7 6 19 18 15 11 8 8 9 9 10 12 12 13 13 12 10 9 8 6 7 7 8 10 9 9 9 8 8 8 9 9 8 8 7
2 1 2 7 9 4 3 10 25 21 22 22 18 12 4 13 18 15 11 9 8 14 12 10 12 12 12 12 14 12 11 10 9 8 8 9 8 10 9 8 9 9 7 9 7 7 6 6 6
4 4 7 10 8 8 12 21 20 21 7 10 17 9 7 11 15 13 10 5 6 2 12 10 8 10 13 11 12 12 11 10 9 8 8 7 10 8 8 9 8 8 7 6 6 5 5 3 3
3 5 11 7 5 4 10 14 24 25 11 20 17 8 12 14 17 14 10 7 6 2 10 10 7 5 5 5 12 11 10 11 10 10 10 9 10 9 7 5 9 8 7 6 5 4 5 4 3
4 7 7 6 5 5 10 11 5 16 19 14 5 17 18 20 16 11 10 7 4 4 1 10 11 10 8 6 7 11 13 12 11 10 11 10 4 6 6 6 7 8 7 7 7 6 6 6 7
11 8 9 10 10 6 12 9 7 9 19 19 21 20 21 21 18 13 13 14 7 6 6 5 11 13 9 6 3 3 3 3 4 5 6 5 6 6 6 7 10 9 9 8 8 8 8 7 3
8 10 6 9 12 10 11 9 9 17 20 23 27 24 23 20 16 15 13 15 18 13 11 9 12 8 10 6 1 1 3 3 3 6 6 5 5 5 3 2 3 3 8 2 1 3 1 3 2
17 13 10 9 5 7 10 11 9 8 19 23 24 25 22 19 16 14 13 13 13 11 13 7 12 13 8 5 5 5 4 5 4 5 6 2 2 3 4 3 4 4 3 4 3 3 4 6 5
24 12 10 8 12 11 12 8 6 17 19 20 19 23 20 19 19 14 16 12 8 14 16 10 13 10 9 6 4 5 4 3 2 5 6 4 2 2 4 4 4 4 3 3 4 4 4 5 7
15 20 15 4 12 11 11 7 6 13 18 19 17 13 17 21 18 16 13 15 8 9 11 14 11 8 9 6 5 4 3 4 4 3 4 4 3 3 4 4 5 4 3 4 5 5 4 6 5
22 11 10 6 9 3 8 8 5 13 16 16 14 12 13 11 15 14 14 15 13 9 12 11 12 11 8 7 3 3 4 5 4 5 5 4 3 5 4 2 3 4 4 5 3 4 4 5 3
15 13 7 7 8 11 6 6 6 11 15 14 13 12 11 10 11 9 11 12 10 9 15 12 11 10 9 7 5 3 1 2 3 2 3 5 5 3 2 3 3 3 3 4 3 4 3 4 4
1 7 8 12 14 8 6 9 10 7 11 11 12 9 8 8 11 8 14 10 13 11 10 11 14 13 9 7 5 4 4 2 2 3 3 2 4 4 3 1 2 3 3 3 3 2 3 3 4
4 4 10 11 16 18 16 30 23 7 13 13 10 9 8 6 11 10 14 14 14 13 7 8 10 10 8 6 4 0 3 3 3 4 3 3 2 3 1 2 3 1 2 3 3 4 3 4 4
6 5 8 17 16 6 23 26 31 23 6 14 13 11 11 10 13 6 10 14 11 7 7 10 11 10 9 3 3 1 3 3 3 4 6 5 4 4 4 3 3 2 3 4 5 3 4 3 4
18 14 10 7 12 15 18 23 23 17 7 7 14 15 14 13 16 9 10 17 13 8 2 4 5 12 8 4 4 3 3 3 3 3 4 5 6 6 5 5 4 5 3 5 5 4 1 2 1
12 17 16 16 10 3 16 4 5 12 11 7 11 17 14 15 18 13 15 18 20 17 12 7 6 4 10 9 4 4 3 1 1 2 2 4 6 7 6 6 4 4 3 1 0 3 1 1 2
6 11 4 7 5 4 4 4 7 4 5 15 7 9 14 18 19 16 16 15 18 13 7 5 6 2 6 5 2 9 5 4 3 4 2 2 5 5 6 3 3 3 1 2 1 2 2 2 3
12 9 6 3 4 1 5 8 7 7 6 7 5 4 8 20 20 18 18 16 14 9 8 7 6 2 6 8 10 3 6 3 2 3 5 3 1 8 5 5 6 4 4 4 5 4 4 1 2
9 4 8 6 2 3 6 8 6 4 9 4 5 3 4 11 19 17 17 18 14 10 7 4 6 5 6 7 6 6 6 3 1 2 1 1 4 2 5 7 6 5 5 5 4 4 4 4 3
6 3 4 6 5 7 7 8 9 12 13 6 10 11 1 4 10 17 19 14 13 12 8 6 8 7 8 8 6 4 4 1 4 1 3 5 5 3 5 5 5 3 4 6 5 5 4 3 2
9 8 7 7 4 4 3 6 7 14 7 1 11 19 13 18 16 16 15 8 8 16 14 12 10 9 8 7 7 6 4 4 3 6 6 6 5 4 6 6 5 7 8 7 6 4 3 5 5
9 6 8 6 9 1 6 4 9 3 6 8 8 30 23 12 17 18 15 9 8 14 13 12 11 7 7 7 6 5 4 7 7 7 7 5 5 5 6 6 8 7 6 6 5 4 5 5 5
11 8 5 5 5 6 7 10 8 10 8 5 5 8 17 21 19 17 16 14 13 14 13 10 9 7 6 7 6 6 6 7 7 6 7 7 6 6 7 6 6 6 6 5 6 5 4 5 4
3 4 5 2 4 4 2 5 10 15 11 14 16 16 24 21 22 17 16 16 15 14 14 12 9 9 10 9 8 7 6 6 7 6 6 6 6 7 6 5 6 6 7 6 7 6 5 6 4
10 11 10 7 11 4 5 6 13 17 17 15 12 17 20 19 18 17 17 17 15 14 11 13 10 8 9 8 8 7 7 7 7 6 7 6 6 5 5 5 7 7 7 7 7 7 5 7 9
Wind_Direction
165 172 194 213 350 86 9 82 45 86 70 101 138 178 170 148 150 194 110 136 130 147 137 149 132 133 127 127 123 117 107 104 108 104 105 96 92 96 102 110 116 115 113 118 112 105 105 107 106
185 175 190 242 83 84 216 115 133 96 105 115 104 116 98 120 82 115 104 136 128 129 147 125 124 131 132 130 123 117 114 112 115 105 104 98 108 100 98 105 109 102 113 126 117 116 115 111 116
243 275 202 131 72 81 3 87 117 116 128 125 96 97 94 83 97 91 132 139 128 137 134 130 120 128 134 134 125 125 122 112 106 111 110 116 115 108 123 110 116 120 126 118 120 114 110 112 104
140 290 269 88 63 17 124 209 94 93 79 82 104 74 58 99 99 121 133 144 151 170 126 133 131 128 126 129 130 130 129 119 109 105 112 126 130 126 120 121 117 120 120 119 118 115 109 106 93
206 249 342 78 84 234 144 122 103 102 96 94 98 100 95 97 105 125 140 162 170 125 129 129 142 136 136 132 130 136 134 127 118 128 120 131 142 130 126 126 127 127 131 132 131 126 113 103 91
315 183 29 67 69 174 60 101 94 88 89 98 93 106 133 131 123 138 156 159 148 134 140 147 154 152 146 149 145 144 138 138 141 136 135 150 141 140 142 142 136 139 153 146 143 132 118 106 99
238 193 99 82 58 34 49 87 100 109 138 123 127 120 133 129 138 155 162 121 66 95 141 144 161 155 153 151 144 154 151 146 145 151 144 157 152 146 146 153 153 149 147 140 147 149 143 130 122
251 113 90 100 113 128 71 74 124 128 165 127 133 154 156 151 156 161 130 119 133 202 149 155 147 127 134 154 163 166 162 158 161 162 160 155 160 155 158 149 158 151 157 164 180 188 192 203 234
223 65 69 73 103 102 88 84 68 126 144 166 145 135 152 147 145 138 125 133 195 253 163 157 160 163 169 178 181 176 175 175 176 167 165 160 175 179 184 172 162 156 173 179 195 200 218 235 248
91 74 75 96 99 121 122 142 153 122 124 118 122 129 139 151 151 160 159 155 200 189 223 188 181 174 158 151 198 211 215 189 187 179 174 182 182 190 179 186 169 172 180 190 210 211 221 240 235
101 110 91 62 129 145 155 150 130 118 124 140 141 150 155 156 166 165 176 158 176 194 202 191 193 139 132 148 258 327 237 206 210 190 197 210 193 182 162 181 187 189 188 167 30 292 305 20 334
103 107 106 106 123 92 71 134 86 171 142 140 147 156 160 166 170 177 188 174 173 184 209 157 132 125 145 133 142 243 216 211 195 190 205 217 211 187 164 171 205 180 179 184 196 200 201 248 270
270 124 120 138 93 84 86 91 94 111 125 127 137 162 169 174 174 178 183 175 196 164 181 155 135 139 154 168 151 206 204 150 155 196 194 168 222 190 169 187 186 196 162 180 197 219 211 250 248
120 36 7 139 125 141 124 121 111 121 128 136 155 169 175 175 181 174 187 156 146 140 122 126 133 140 146 156 173 170 101 160 192 186 212 210 185 181 162 183 193 196 194 191 199 205 222 245 244
50 129 11 356 319 156 109 58 126 133 134 145 169 180 182 173 174 161 168 151 155 153 139 140 140 145 143 145 173 155 167 147 170 181 198 218 196 187 194 190 204 207 191 144 188 205 224 231 261
73 65 357 343 339 318 93 212 169 144 148 157 180 192 174 183 164 145 153 149 144 150 149 156 155 151 155 161 170 158 190 131 171 146 170 211 215 192 172 201 220 219 208 202 199 223 245 242 214
97 178 195 327 290 279 344 360 302 143 160 175 185 195 174 159 162 155 159 132 155 138 156 170 155 160 163 159 139 173 200 194 199 141 107 81 198 214 173 179 245 222 221 226 236 227 215 257 254
204 162 181 167 258 240 86 50 332 262 182 187 194 167 167 176 157 159 161 140 143 164 178 144 151 148 155 125 126 315 207 201 174 159 179 170 148 117 145 252 212 223 249 239 234 245 205 225 250
164 230 188 207 229 75 132 142 212 230 182 190 191 169 173 179 145 188 123 147 147 151 149 145 137 155 145 139 139 198 223 193 194 197 196 210 209 202 229 256 249 224 245 241 221 210 232 259 222
152 208 227 304 249 127 156 178 194 221 257 221 184 173 184 177 143 167 107 98 48 35 347 126 157 159 175 162 152 136 145 200 205 217 197 203 211 216 211 225 242 229 243 250 237 218 231 258 168
193 209 213 209 232 304 122 81 171 252 254 322 246 180 187 168 147 157 134 134 136 182 221 170 136 231 185 178 125 148 96 329 126 270 175 222 208 199 211 226 217 243 244 275 84 240 228 231 298
284 227 237 207 103 194 150 101 182 226 197 184 281 190 192 159 152 156 144 149 166 211 202 208 175 196 265 81 156 119 146 229 193 185 167 158 249 210 220 195 192 218 186 27 340 331 248 222 260
246 259 295 237 249 337 294 95 273 257 232 338 298 256 325 165 158 145 154 162 170 191 210 190 160 191 261 128 176 142 143 143 223 157 185 183 270 52 34 52 48 46 50 37 39 7 345 320 276
283 319 321 324 159 33 166 116 276 234 221 243 246 209 0 326 158 139 152 155 171 191 191 130 155 249 114 106 96 88 77 134 91 56 4 44 77 69 55 45 39 30 36 33 35 356 357 15 349
290 297 332 335 349 227 142 89 217 221 253 225 329 306 18 333 196 147 150 167 179 186 175 184 143 117 113 113 99 110 126 119 100 114 93 81 84 61 52 52 40 26 35 41 18 4 29 27 15
236 192 159 227 245 240 360 148 244 223 306 175 105 257 274 278 192 143 150 157 144 134 144 128 124 112 107 117 99 92 78 79 76 47 78 75 85 68 49 44 37 28 38 26 3 354 34 27 15
276 302 231 237 265 334 163 24 341 219 248 200 190 209 218 212 158 146 149 153 131 116 128 130 125 127 143 136 124 117 82 92 87 71 73 75 68 70 50 39 55 62 49 40 24 21 23 25 23
171 214 305 329 210 255 273 172 203 182 216 238 247 263 183 171 153 153 152 132 119 121 123 121 127 142 129 124 123 123 124 107 96 84 87 80 73 67 55 66 55 64 41 22 25 8 9 39 15
235 198 256 220 163 179 281 277 178 176 176 205 233 154 157 162 150 154 135 132 124 126 129 129 117 133 132 136 137 115 97 97 96 92 86 91 76 81 70 70 53 60 43 24 20 6 8 23 30
184 183 187 137 283 230 172 296 157 180 199 191 213 142 155 149 151 136 135 129 129 126 131 130 138 141 128 120 112 113 112 100 91 95 87 83 84 89 67 66 62 63 38 21 13 357 8 27 29